Voltar ao catálogo

STARLINK-32705

AtivoComunicaçõesVLEO
NORAD 62479·PAYLOAD·🇺🇸 United States

Lançado Dec 31, 2024 de Cape Canaveral Space Force Station

Loading…

Próximas Passagens (próximas 24 horas)

TLE

AtualizadoSource: CelesTrak SupGP

Época: Sep 14, 2026, 20:52 UTC

1 62479C 24254T   26257.86993056  .00047637  00000+0  17251-2 0  2574
2 62479  43.0044  20.4025 0001896 276.9887  67.7081 15.27558892    11

Acompanhe STARLINK-32705 em tempo real com AllMySat

Download on the App Store